[[{"header":{"parameterUnit":"m.s-1","parameterCategory":1,"la1":30.2991,"la2":30.254,"lo1":-89.0895,"lo2":-89.0444,"dy":0.0017,"dx":0.0017,"nx":28,"ny":28,"refTime":"2024-03-15T09:00:00:Z","depth":0,"parameterNumber":2,"parameterNumberName":"U-component_of_WINDS"},"data":[0,0,0,0,0,0,0,0,0,0,0,0,0,0,0,0,0,0,0,0,0,0,0,0,0,0,0,0,0,0,0,0,0,0,0,0,0,0,0,0,0,0,0,0,0,0,0,0,0,0,0,0,0,0,0,0,0,0,1.3769,1.3769,0,1.384,1.3841,1.3842,1.3805,1.3803,1.3801,1.38,1.3877,1.3881,1.3885,0,0,0,0,0,0,0,0,0,0,0,0,0,1.3603,1.3606,1.3768,1.3769,1.377,1.384,1.3841,1.3842,1.3806,1.3803,1.3801,1.3799,1.3876,1.3881,1.3885,0,0,0,0,0,0,0,0,0,0,0,0,0,1.3675,1.3608,1.3768,1.376,1.376,1.384,1.3841,1.3843,1.3806,1.3803,1.38,1.3798,1.3875,1.388,1.3886,1.3979,0,0,1.3904,1.3906,0,0,0,0,0,0,0,0,1.3671,1.3681,1.3761,1.3761,1.3761,1.3811,1.3812,1.3889,1.3807,1.3789,1.38,1.3796,1.3858,1.3865,1.3885,1.3983,1.3986,1.3904,1.3908,1.391,1.3912,0,0,0,0,0,0,0,1.3666,1.3678,1.3797,1.3762,1.3762,1.3754,1.3761,1.3826,1.3839,1.379,1.3788,1.3796,1.3858,1.3879,1.3886,1.3987,1.3904,1.3909,1.3913,1.3915,1.4167,1.417,0,0,0,0,0,0,1.3661,1.3674,1.3795,1.3799,1.3708,1.376,1.3768,1.3798,1.3838,1.3841,1.3799,1.3794,1.3871,1.388,1.3889,1.4002,1.391,1.3916,1.3919,1.4163,1.4167,1.4171,0,0,0,0,0,0,1.3658,1.3672,1.3792,1.3736,1.3751,1.3766,1.38,1.3801,1.3822,1.3844,1.3847,1.3819,1.3869,1.3881,1.3957,1.4004,1.3918,1.3923,1.416,1.4165,1.4169,1.4227,0,0,0,0,0,0,1.3653,1.3671,1.3706,1.3737,1.3754,1.3858,1.3803,1.3804,1.3832,1.3827,1.3864,1.3867,1.3868,1.3949,1.3963,1.401,1.3928,1.4156,1.4162,1.4167,1.4221,1.4233,1.4244,0,0,0,0,0,1.3647,1.372,1.3708,1.3723,1.3797,1.386,1.387,1.3868,1.3836,1.3872,1.3886,1.3866,1.3996,1.3957,1.3972,1.4022,1.4153,1.416,1.4167,1.4216,1.4231,1.4244,0,0,0,0,0,0,1.3695,1.3724,1.3711,1.3795,1.3826,1.3854,1.3899,1.3884,1.3925,1.3919,1.3916,1.3925,1.4004,1.402,1.3976,1.4115,1.407,1.408,1.4102,1.4116,1.4127,1.4122,1.3933,0,0,0,0,0,1.3715,1.3763,1.3786,1.3859,1.3874,1.3884,1.3912,1.3907,1.3939,1.3952,1.3972,1.4005,1.4053,1.4085,1.4131,1.4223,1.4231,1.4265,1.4276,1.4286,1.4296,1.4347,1.4363,1.4195,1.4194,1.4194,0,0,1.3758,1.378,1.381,1.3869,1.3892,1.3943,1.3895,1.3951,1.3989,1.3961,1.4034,1.405,1.4086,1.4171,1.421,1.4187,1.4343,1.4295,1.4302,1.4307,1.4356,1.4372,1.4386,1.4199,1.4199,1.4198,0,0,1.3862,1.3883,1.3946,1.3969,1.4004,1.401,1.4026,1.4056,1.4065,1.4138,1.4119,1.4165,1.4248,1.4275,1.4299,1.4414,1.4397,1.4429,1.4489,1.4539,1.4552,1.4564,1.4606,1.4621,1.4438,1.4438,1.4438,0,1.3911,1.3986,1.398,1.4038,1.4065,1.404,1.4105,1.4129,1.4178,1.4198,1.4172,1.4276,1.4298,1.439,1.4418,1.4438,1.4457,1.4425,1.455,1.4562,1.4573,1.4613,1.4629,1.4442,1.4441,1.4441,1.4441,0,1.4045,1.4097,1.4144,1.4191,1.4223,1.4284,1.4289,1.4323,1.4316,1.4325,1.44,1.4426,1.4477,1.4498,1.4493,1.459,1.4575,1.455,1.4504,1.4593,1.4631,1.4646,1.4447,1.4446,1.4445,1.4444,0,0,1.4182,1.4225,1.4242,1.4263,1.43,1.4341,1.4401,1.445,1.4479,1.4514,1.4565,1.4636,1.4613,1.4641,1.4638,1.4682,1.4772,1.4651,1.4652,1.4674,1.4882,1.4902,1.492,1.4761,1.4764,1.4766,1.488,0,1.429,1.4394,1.4391,1.4489,1.4538,1.4515,1.4568,1.4597,1.4607,1.4651,1.4663,1.4714,1.4678,1.4695,1.4737,1.4752,1.4814,1.4744,1.4811,1.4813,1.4804,1.494,1.4961,1.5067,1.4894,1.4897,1.4899,0,1.4429,1.4468,1.457,1.46,1.462,1.4668,1.4712,1.4754,1.4787,1.4792,1.4823,1.4813,1.4876,1.4827,1.4914,1.4867,1.4894,1.4905,1.4909,1.4917,1.4862,1.4952,1.51,1.5117,1.4922,1.492,1.4918,0,1.4521,1.4598,1.4669,1.4688,1.4724,1.4758,1.4775,1.4805,1.4835,1.4874,1.4894,1.494,1.4967,1.5003,1.5007,1.4971,1.5095,1.5047,1.5102,1.5103,1.5131,1.5129,1.5287,1.5146,1.5146,1.5145,1.5145,0,1.4642,1.4706,1.4711,1.4755,1.4826,1.4823,1.4894,1.4908,1.4935,1.4982,1.4965,1.5011,1.5012,1.5058,1.5061,1.5134,1.5146,1.5152,1.5153,1.5155,1.5154,1.5173,1.5167,1.515,1.5149,1.5148,1.5147,0,1.4757,1.4762,1.4839,1.4867,1.4876,1.4927,1.4952,1.4995,1.5003,1.5063,1.5077,1.5091,1.5145,1.5152,1.5215,1.5217,1.5305,1.5297,1.5294,1.5293,1.5349,1.5344,1.5526,1.555,1.5392,1.5393,1.5394,0,1.4835,1.4883,1.4916,1.4946,1.4965,1.5014,1.5044,1.5042,1.5074,1.5116,1.5154,1.5206,1.5247,1.5335,1.5352,1.54,1.5394,1.5454,1.5402,1.5402,1.5397,1.5395,1.54,1.5465,1.5467,1.5468,1.547,0,1.4973,1.4973,1.5016,1.5061,1.5097,1.5132,1.5165,1.5191,1.5194,1.5231,1.5285,1.5318,1.5382,1.5435,1.5483,1.5501,1.5487,1.5486,1.5502,1.5505,1.5502,1.5506,1.5323,1.5482,1.5481,1.548,1.5479,1.5479,1.5072,1.5115,1.5145,1.5194,1.5218,1.525,1.5291,1.5304,1.5349,1.5401,1.5397,1.5458,1.5491,1.5553,1.5576,1.5624,1.5604,1.5627,1.5633,1.5639,1.5645,1.5493,1.5633,1.5632,1.5632,1.5632,1.5631,0,1.521,1.5228,1.5273,1.532,1.5359,1.534,1.5376,1.541,1.5463,1.5494,1.5535,1.5598,1.5649,1.567,1.572,1.5755,1.5749,1.5768,1.5766,1.5771,1.5659,1.5641,1.5772,1.5772,1.5772,1.5771,1.5771,1.5771,1.5287,1.5358,1.5362,1.5446,1.5463,1.5522,1.5544,1.5574,1.5598,1.5669,1.5711,1.5723,1.5751,1.5803,1.5849,1.5854,1.5874,1.5896,1.5898,1.5793,1.5779,1.5765,1.5749,1.59,1.59,1.6006,1.6007,1.6008]},{"header":{"parameterUnit":"m.s-1","parameterCategory":1,"la1":30.2991,"la2":30.254,"lo1":-89.0895,"lo2":-89.0444,"dy":0.0017,"dx":0.0017,"nx":28,"ny":28,"refTime":"2024-03-15T09:00:00:Z","depth":0,"parameterNumber":3,"parameterNumberName":"V-component_of_WINDS"},"data":[0,0,0,0,0,0,0,0,0,0,0,0,0,0,0,0,0,0,0,0,0,0,0,0,0,0,0,0,0,0,0,0,0,0,0,0,0,0,0,0,0,0,0,0,0,0,0,0,0,0,0,0,0,0,0,0,0,0,1.8598,1.8599,0,1.8663,1.8664,1.8665,1.8667,1.8666,1.8665,1.8664,1.873,1.8732,1.8734,0,0,0,0,0,0,0,0,0,0,0,0,0,1.8473,1.8475,1.8598,1.8599,1.86,1.8663,1.8664,1.8665,1.8667,1.8666,1.8665,1.8664,1.8729,1.8732,1.8735,0,0,0,0,0,0,0,0,0,0,0,0,0,1.8532,1.8476,1.8598,1.8608,1.861,1.8663,1.8664,1.8665,1.8667,1.8666,1.8665,1.8664,1.8728,1.8731,1.8735,1.8782,0,0,1.8746,1.8748,0,0,0,0,0,0,0,0,1.8528,1.8536,1.8606,1.8608,1.861,1.8656,1.8644,1.8704,1.8667,1.8645,1.8664,1.8663,1.8706,1.8711,1.8726,1.8785,1.8788,1.8747,1.8749,1.8751,1.8752,0,0,0,0,0,0,0,1.8524,1.8533,1.8624,1.8607,1.8609,1.8609,1.8616,1.8655,1.8681,1.8647,1.8647,1.8655,1.8707,1.8722,1.8728,1.8788,1.8747,1.875,1.8752,1.8754,1.8888,1.8889,0,0,0,0,0,0,1.8518,1.853,1.8622,1.8626,1.8565,1.8612,1.862,1.8642,1.8681,1.8686,1.8656,1.8655,1.8717,1.8723,1.873,1.8787,1.875,1.8754,1.8756,1.8887,1.8888,1.889,0,0,0,0,0,0,1.8516,1.8527,1.8619,1.8578,1.859,1.8616,1.864,1.8644,1.866,1.8688,1.8692,1.8668,1.8716,1.8725,1.8769,1.8789,1.8756,1.8759,1.8885,1.8887,1.8889,1.8902,0,0,0,0,0,0,1.8512,1.8526,1.8544,1.8579,1.8592,1.8658,1.8642,1.8646,1.8667,1.8666,1.87,1.8704,1.8716,1.8763,1.8772,1.8794,1.8762,1.8883,1.8886,1.8888,1.8899,1.8904,1.8907,0,0,0,0,0,1.8508,1.8545,1.8545,1.8556,1.8616,1.8659,1.8667,1.8679,1.8668,1.8687,1.8704,1.8703,1.8785,1.8768,1.8778,1.8801,1.8882,1.8885,1.8888,1.8898,1.8903,1.8907,0,0,0,0,0,0,1.8512,1.855,1.855,1.86,1.8626,1.8659,1.8683,1.8685,1.8714,1.8712,1.8726,1.8734,1.8778,1.8793,1.8773,1.8848,1.8832,1.8838,1.8836,1.8841,1.8845,1.8841,1.8765,0,0,0,0,0,1.8519,1.8551,1.8582,1.8623,1.8636,1.8657,1.8676,1.8684,1.8711,1.8722,1.8743,1.877,1.8801,1.8822,1.8853,1.8901,1.8909,1.8922,1.8926,1.8929,1.8934,1.896,1.8966,1.89,1.89,1.8899,0,0,1.8533,1.8558,1.8577,1.8624,1.8646,1.8678,1.8667,1.8702,1.8726,1.8728,1.8771,1.8787,1.8817,1.8864,1.8885,1.8878,1.8953,1.8933,1.8935,1.8938,1.8964,1.897,1.8976,1.8902,1.8901,1.8901,0,0,1.8576,1.8598,1.8634,1.8656,1.8688,1.8702,1.871,1.8743,1.8754,1.8798,1.88,1.8828,1.8882,1.8904,1.8922,1.8971,1.8971,1.8981,1.9002,1.9028,1.9033,1.9038,1.9055,1.9062,1.8985,1.8985,1.8985,0,1.859,1.864,1.8652,1.8688,1.8708,1.8711,1.8748,1.8768,1.8808,1.8822,1.8814,1.8882,1.8902,1.8953,1.8966,1.898,1.899,1.8977,1.9031,1.9036,1.9041,1.9058,1.9064,1.8986,1.8986,1.8986,1.8986,0,1.8655,1.8689,1.8714,1.8754,1.8777,1.8812,1.883,1.8852,1.8857,1.8871,1.8915,1.8939,1.8975,1.8988,1.8993,1.904,1.9034,1.9028,1.9013,1.9048,1.9064,1.9071,1.8987,1.8987,1.8987,1.8987,0,0,1.8703,1.8749,1.8758,1.8776,1.8811,1.8838,1.8873,1.8908,1.8926,1.8954,1.8983,1.9029,1.9024,1.9044,1.9051,1.9074,1.9111,1.9065,1.9066,1.9073,1.9164,1.9169,1.9176,1.9111,1.9113,1.9114,1.9162,0,1.875,1.8814,1.8826,1.8881,1.8913,1.8916,1.8946,1.8971,1.8985,1.9013,1.9028,1.906,1.9051,1.9063,1.9085,1.9102,1.913,1.9099,1.9139,1.914,1.9132,1.9185,1.919,1.9235,1.9168,1.9169,1.917,0,1.8814,1.8843,1.8902,1.8933,1.8946,1.8974,1.9007,1.9034,1.9061,1.907,1.9092,1.9097,1.9133,1.9115,1.9165,1.9143,1.916,1.917,1.9172,1.9177,1.9158,1.9191,1.9249,1.9256,1.918,1.9179,1.9179,0,1.8844,1.8898,1.894,1.8955,1.8992,1.9011,1.9027,1.9053,1.9074,1.9102,1.9115,1.9147,1.9164,1.9189,1.9201,1.9188,1.925,1.9233,1.9257,1.9257,1.9271,1.927,1.9333,1.9281,1.9281,1.9281,1.9281,0,1.8895,1.8931,1.8954,1.8979,1.9019,1.9032,1.9071,1.9086,1.911,1.9138,1.9142,1.9168,1.9183,1.9212,1.9222,1.9261,1.9269,1.9276,1.9279,1.9276,1.9275,1.9288,1.9285,1.9282,1.9282,1.9282,1.9281,0,1.8936,1.8952,1.8998,1.9029,1.9038,1.9066,1.9092,1.9117,1.913,1.9166,1.9175,1.9196,1.923,1.9245,1.9286,1.9292,1.9337,1.9337,1.9328,1.9329,1.9352,1.935,1.9426,1.9436,1.9377,1.9378,1.9378,0,1.8968,1.8996,1.903,1.9049,1.9066,1.9097,1.9118,1.9131,1.9152,1.9185,1.9206,1.9239,1.9267,1.932,1.9339,1.937,1.9371,1.9395,1.9376,1.9372,1.9372,1.937,1.9373,1.9399,1.94,1.94,1.94,0,1.9023,1.903,1.906,1.9093,1.9117,1.9144,1.9169,1.9185,1.9202,1.9225,1.926,1.9281,1.9323,1.9356,1.9389,1.9404,1.9405,1.9406,1.9413,1.9412,1.9406,1.941,1.9338,1.9405,1.9404,1.9404,1.9404,1.9404,1.9061,1.9086,1.9114,1.9146,1.9167,1.9191,1.9216,1.9232,1.9261,1.9297,1.9303,1.9339,1.9365,1.9409,1.9425,1.9454,1.9448,1.9458,1.9461,1.9464,1.9465,1.9401,1.9459,1.9459,1.9459,1.9459,1.9459,0,1.9117,1.9135,1.9165,1.9201,1.9227,1.9225,1.9253,1.9275,1.9308,1.9332,1.9359,1.9398,1.943,1.9451,1.9483,1.9501,1.9503,1.9509,1.9509,1.9512,1.9468,1.9459,1.9508,1.9508,1.9508,1.9508,1.9508,1.9508,1.915,1.9191,1.9201,1.9252,1.9269,1.9306,1.9322,1.9344,1.9363,1.9407,1.9434,1.9447,1.947,1.9503,1.9532,1.9537,1.9549,1.9556,1.9561,1.952,1.9515,1.951,1.9502,1.9559,1.9559,1.9602,1.9603,1.9603]}]]